SCP
6 8 7 3 4 4 4 5 5 3 3 3 2 3 2 2 2 2 2 2 2 2
7 7 7 7 6 5 4 3 3 3 2 2 1 1 1 1 1 2 1 1 2 2
7 6 4 3 2 2 1 1 1 1 1 1 1 1 1 1 1 1 1 1 1 1
2 2 1 1 1 1 1 1 0 0 0 0 0 0 0 0 0 0 0 0 0 0
1 1 0 0 0 0 0 0 0 0 0 0 0 0 0 0 0 0 0 0 0 0
0 0 0 0 0 0 0 0 0 0 0 0 0 0 0 0 0 0 0 0 0 0
0 0 0 0 0 0 0 0 0 0 0 0 0 0 0 0 0 0 0 0 0 0
0 0 0 0 0 0 0 0 0 0 0 0 0 0 0 0 0 0 0 0 0 0
0 0 0 0 0 0 0 0 0 0 0 0 0 0 0 0 0 0 0 0 0 0
0 0 0 0 0 0 0 0 0 0 0 0 0 0 0 0 0 0 0 0 0 0
0 0 0 0 0 0 0 0 0 0 0 0 0 0 0 0 0 0 0 0 0 0
0 0 0 0 0 0 0 0 0 0 0 0 0 0 0 0 0 0 0 0 0 0
0 0 0 0 0 0 0 0 0 0 0 0 0 0 0 0 0 0 0 0 0 0
0 0 0 0 0 0 0 0 0 0 0 0 0 0 0 0 0 0 0 0 0 0
Wind_Speed_500mb
50 47 39 27 24 24 23 22 29 29 25 26 28 26 26 22 24 28 30 34 40 45
56 40 45 41 42 36 34 31 30 26 30 28 28 28 26 24 23 29 33 35 39 37
58 60 55 51 48 37 28 18 19 23 21 13 8 5 5 9 16 20 21 23 25 28
66 58 50 38 33 28 24 17 11 20 16 11 6 7 7 9 9 13 17 18 21 22
57 52 46 43 37 34 32 28 26 18 12 7 11 18 15 13 14 14 18 22 23 31
56 54 51 47 41 36 30 24 16 9 3 3 5 4 17 29 28 27 26 25 28 34
64 60 54 47 38 29 21 13 5 5 6 11 10 16 26 35 34 35 35 31 29 31
59 51 44 36 27 19 12 7 4 6 7 12 19 21 30 39 46 49 43 32 19 24
50 42 34 26 18 10 4 6 7 11 12 13 29 34 42 48 51 43 28 14 21 19
46 41 32 18 6 5 11 16 18 18 18 23 29 36 42 39 18 18 16 16 22 23
37 29 20 7 4 10 14 15 14 14 8 18 23 29 28 17 13 18 21 22 26 22
23 17 8 5 8 9 11 17 10 5 8 16 18 15 15 18 24 27 23 24 19 19
15 9 5 7 9 11 14 8 3 6 10 14 16 18 20 22 19 15 11 18 22 21
19 12 14 12 5 10 11 13 14 16 20 23 21 27 24 26 25 23 16 12 12 24
Wind_Direction_500mb
191 183 188 164 160 177 192 201 202 208 213 233 238 242 252 255 257 263 272 279 282 282
177 173 169 167 174 171 174 174 185 210 234 231 241 249 263 280 288 285 289 288 286 290
167 172 171 175 178 180 183 197 215 230 241 248 260 291 332 328 323 311 305 305 305 306
169 172 169 172 163 154 140 126 114 94 82 68 11 5 358 23 341 308 324 328 318 313
158 156 159 151 148 147 144 139 130 121 102 57 358 339 329 308 300 302 309 298 310 299
146 143 136 130 127 130 132 135 129 125 99 313 301 5 286 279 281 288 293 294 292 302
133 132 131 132 132 131 130 119 79 44 352 322 319 282 265 279 294 301 302 304 303 304
127 127 127 125 121 117 117 101 56 346 341 316 309 291 285 293 299 302 305 307 328 305
118 113 107 103 104 103 54 344 323 311 307 307 292 298 299 303 308 311 311 329 285 276
107 105 100 102 96 13 325 316 313 317 323 296 300 305 312 325 353 359 332 299 297 297
108 105 102 105 353 325 319 329 357 22 311 303 314 322 339 346 346 332 324 320 312 333
110 102 91 8 345 346 37 61 77 254 297 313 359 20 12 19 33 359 10 353 342 310
94 75 34 32 69 92 107 184 128 3 18 8 19 28 15 13 5 337 4 359 345 334
70 50 75 115 121 119 109 80 65 46 29 26 15 5 359 1 358 355 358 360 339 334
Wind_Speed_850mb
50 47 39 27 24 24 23 22 29 29 25 26 28 26 26 22 24 28 30 34 40 45
56 40 45 41 42 36 34 31 30 26 30 28 28 28 26 24 23 29 33 35 39 37
58 60 55 51 48 37 28 18 19 23 21 13 8 5 5 9 16 20 21 23 25 28
66 58 50 38 33 28 24 17 11 20 16 11 6 7 7 9 9 13 17 18 21 22
57 52 46 43 37 34 32 28 26 18 12 7 11 18 15 13 14 14 18 22 23 31
56 54 51 47 41 36 30 24 16 9 3 3 5 4 17 29 28 27 26 25 28 34
64 60 54 47 38 29 21 13 5 5 6 11 10 16 26 35 34 35 35 31 29 31
59 51 44 36 27 19 12 7 4 6 7 12 19 21 30 39 46 49 43 32 19 24
50 42 34 26 18 10 4 6 7 11 12 13 29 34 42 48 51 43 28 14 21 19
46 41 32 18 6 5 11 16 18 18 18 23 29 36 42 39 18 18 16 16 22 23
37 29 20 7 4 10 14 15 14 14 8 18 23 29 28 17 13 18 21 22 26 22
23 17 8 5 8 9 11 17 10 5 8 16 18 15 15 18 24 27 23 24 19 19
15 9 5 7 9 11 14 8 3 6 10 14 16 18 20 22 19 15 11 18 22 21
19 12 14 12 5 10 11 13 14 16 20 23 21 27 24 26 25 23 16 12 12 24
Wind_Direction_850mb
191 183 188 164 160 177 192 201 202 208 213 233 238 242 252 255 257 263 272 279 282 282
177 173 169 167 174 171 174 174 185 210 234 231 241 249 263 280 288 285 289 288 286 290
167 172 171 175 178 180 183 197 215 230 241 248 260 291 332 328 323 311 305 305 305 306
169 172 169 172 163 154 140 126 114 94 82 68 11 5 358 23 341 308 324 328 318 313
158 156 159 151 148 147 144 139 130 121 102 57 358 339 329 308 300 302 309 298 310 299
146 143 136 130 127 130 132 135 129 125 99 313 301 5 286 279 281 288 293 294 292 302
133 132 131 132 132 131 130 119 79 44 352 322 319 282 265 279 294 301 302 304 303 304
127 127 127 125 121 117 117 101 56 346 341 316 309 291 285 293 299 302 305 307 328 305
118 113 107 103 104 103 54 344 323 311 307 307 292 298 299 303 308 311 311 329 285 276
107 105 100 102 96 13 325 316 313 317 323 296 300 305 312 325 353 359 332 299 297 297
108 105 102 105 353 325 319 329 357 22 311 303 314 322 339 346 346 332 324 320 312 333
110 102 91 8 345 346 37 61 77 254 297 313 359 20 12 19 33 359 10 353 342 310
94 75 34 32 69 92 107 184 128 3 18 8 19 28 15 13 5 337 4 359 345 334
70 50 75 115 121 119 109 80 65 46 29 26 15 5 359 1 358 355 358 360 339 334